Wind_Speed
23 22 21 19 19 20 19 20 22 19 15 16 15 12 13 13 11 9 8 9 8 6 6 7 8 9 6 5 4 6 6 7 7 9 9 12 12 9 8 6 3 1 4
22 25 22 19 18 18 20 21 21 21 17 14 15 14 13 11 10 11 9 11 9 7 7 7 8 9 10 8 5 7 7 10 8 11 11 10 9 10 9 7 4 3 2
23 24 24 22 18 19 21 22 23 24 20 15 16 15 15 11 11 12 11 9 9 8 7 9 10 10 10 7 7 7 8 7 10 10 10 9 10 10 9 7 6 7 2
21 20 22 20 18 18 20 21 21 23 23 19 17 14 16 12 11 11 11 10 9 9 9 10 11 10 8 6 6 10 11 10 10 10 10 10 8 11 9 8 6 6 5
22 21 19 17 16 17 19 20 19 20 22 20 18 14 15 13 11 10 11 10 10 9 9 9 10 10 9 10 8 10 12 9 10 11 10 9 9 8 10 9 8 8 9
22 21 18 16 17 17 17 18 19 17 18 19 16 17 17 14 10 10 10 10 11 9 9 10 9 10 11 13 13 13 13 10 10 9 8 8 9 8 10 7 8 7 5
22 21 19 18 18 18 18 18 19 18 17 18 18 18 17 12 10 11 12 11 10 10 10 10 9 9 12 13 12 12 12 11 10 11 8 7 8 9 9 10 9 8 7
23 22 20 19 19 19 18 19 18 15 16 15 16 17 15 11 11 13 13 11 11 11 11 13 12 12 12 12 11 11 11 10 9 6 8 8 8 9 9 8 9 9 9
24 24 19 19 21 21 20 20 18 16 15 16 15 14 14 10 12 13 13 11 10 12 13 14 13 12 11 11 12 11 11 9 9 8 6 5 6 7 8 6 6 6 6
25 22 20 20 23 23 22 22 18 16 18 16 15 14 14 15 15 15 15 11 12 13 14 14 13 13 12 12 11 11 11 10 9 8 7 6 6 7 8 10 8 8 7
25 23 22 23 24 25 26 23 19 20 19 17 15 14 15 15 16 17 16 13 12 13 13 13 13 12 11 11 11 12 11 12 12 10 8 8 7 7 6 8 10 10 9
27 27 24 24 24 25 26 22 20 21 21 18 17 17 17 17 18 19 17 14 13 13 13 12 13 13 13 11 12 14 14 14 11 11 10 10 10 10 10 11 11 12 10
29 30 28 25 26 25 26 22 21 22 19 20 21 20 18 18 18 18 19 17 16 16 11 14 17 14 15 16 15 16 17 17 14 15 14 13 12 11 12 13 13 14 15
32 33 31 29 29 28 25 23 22 22 21 17 17 18 18 18 18 18 20 21 21 21 22 20 19 19 18 18 19 20 21 20 17 17 16 14 14 14 15 16 15 14 14
32 31 32 30 31 32 30 26 26 26 24 23 20 19 21 20 20 18 17 22 25 24 23 18 21 22 20 22 21 20 23 22 23 20 18 17 18 18 17 17 18 17 18
29 28 29 28 28 29 29 27 30 28 27 27 24 21 19 20 20 14 15 17 18 20 24 22 23 21 22 21 22 22 23 23 23 22 21 21 21 21 20 19 20 20 21
25 26 28 28 28 27 26 25 26 30 30 27 26 25 23 19 19 17 17 17 20 23 25 24 25 24 24 24 24 24 25 26 27 26 25 24 23 23 24 23 23 24 23
21 23 26 27 27 25 26 26 24 23 25 32 30 29 27 27 26 20 20 21 26 30 27 26 26 26 26 25 25 26 26 25 27 28 28 26 25 25 26 28 27 26 26
20 23 23 22 25 25 24 24 23 23 21 18 20 28 31 29 27 27 26 28 29 30 34 31 28 27 26 26 26 26 27 27 27 27 27 27 28 29 30 29 28 28 27
18 25 25 25 24 27 26 25 25 24 23 21 20 21 26 29 32 32 32 32 35 29 26 27 29 29 29 29 30 29 29 28 30 31 32 32 32 31 31 29 28 28 27
26 27 29 26 25 25 26 26 25 23 22 22 22 22 24 24 30 33 35 37 36 34 29 28 27 29 30 32 32 30 29 30 31 33 33 33 33 33 30 29 29 30 31
33 29 30 27 24 24 24 25 26 25 23 23 22 22 26 21 21 22 26 30 32 33 33 32 30 30 30 31 31 32 33 34 35 32 31 30 30 30 29 30 29 29 30
15 24 17 22 20 21 21 24 23 24 24 24 23 22 27 26 24 23 24 24 24 25 26 29 31 31 31 32 32 34 34 35 34 31 30 29 28 27 28 28 28 30 29
13 11 12 14 16 18 18 21 19 19 18 18 19 21 21 22 21 22 22 23 24 25 26 28 30 33 33 35 34 35 35 33 28 27 28 27 26 26 27 26 26 27 29
15 15 16 16 17 19 18 21 22 23 21 20 24 23 22 22 24 23 23 22 23 24 27 28 29 32 35 34 36 35 30 32 33 28 23 23 24 25 26 25 24 24 23
20 20 20 20 21 21 19 19 19 19 18 18 21 21 24 27 27 25 27 26 26 27 28 30 31 33 33 32 33 33 34 37 38 34 29 29 26 25 24 25 24 21 22
Wind_Direction
206 215 219 214 216 218 218 222 219 213 209 213 211 208 202 209 224 217 215 230 222 240 225 224 207 195 194 189 190 183 186 183 165 157 167 170 168 163 162 170 78 134 49
206 217 216 213 210 219 217 219 217 214 205 207 206 204 204 216 224 233 222 216 235 232 235 210 187 187 193 202 184 179 181 187 183 164 175 172 171 187 189 178 171 203 224
207 217 215 219 209 216 218 213 213 212 205 207 208 211 215 229 230 223 209 227 235 230 212 201 192 198 196 204 182 187 189 173 177 170 167 170 187 191 206 193 202 213 202
204 204 212 212 208 218 217 212 209 211 211 207 209 215 216 231 219 207 220 234 224 221 207 201 196 202 201 182 163 161 165 155 162 157 159 171 179 200 205 215 229 223 204
197 200 202 203 208 216 214 210 207 209 209 213 212 211 206 207 210 215 226 216 217 215 208 197 201 196 181 167 147 152 162 151 152 157 161 171 185 194 204 210 210 217 221
195 195 198 199 203 201 203 205 204 204 200 205 208 207 200 206 218 220 208 218 219 209 200 194 185 187 180 175 170 172 173 165 166 171 179 190 196 203 208 202 200 204 215
193 192 196 196 196 197 199 201 201 197 195 201 200 194 199 216 230 216 209 211 209 202 196 188 169 188 180 178 178 185 190 189 190 186 187 192 218 208 206 193 197 199 206
195 193 194 194 198 194 195 194 190 189 196 191 189 195 208 221 227 209 211 211 204 199 187 181 179 179 176 172 180 193 201 208 212 202 217 225 210 204 198 186 204 196 214
196 199 202 203 195 192 189 187 186 186 187 194 200 208 212 232 223 215 210 206 202 190 191 188 183 178 172 181 187 194 198 206 212 206 198 191 193 195 192 179 188 182 206
200 198 204 206 197 191 188 186 188 189 196 202 216 212 214 224 218 215 205 189 199 192 193 195 190 182 180 184 193 196 194 193 191 179 171 183 198 195 190 180 210 208 219
195 199 201 200 197 193 194 190 194 200 204 213 216 214 218 224 217 211 205 195 203 190 192 200 200 193 196 192 198 200 192 195 192 189 186 193 210 217 212 215 214 204 223
196 199 203 197 195 196 199 195 200 207 208 214 214 219 221 226 222 213 209 196 205 201 197 204 211 214 214 208 206 218 214 204 205 204 206 212 215 219 227 232 229 217 222
201 201 203 202 200 205 202 196 201 211 204 212 220 222 223 232 230 220 215 206 214 213 208 210 219 220 222 221 218 225 228 220 216 221 220 222 225 225 228 240 248 242 238
204 206 205 205 206 211 209 208 203 207 206 211 218 211 215 220 221 225 215 212 218 219 215 218 223 226 229 229 226 229 233 228 225 228 230 229 229 230 233 226 234 237 236
204 204 208 209 210 214 213 209 212 217 220 212 216 223 220 220 221 222 229 223 223 223 219 215 231 227 225 227 225 228 234 232 230 230 231 232 233 233 233 230 230 232 237
207 205 205 202 210 210 214 212 223 228 230 229 223 215 221 221 229 236 235 232 228 226 221 218 223 224 225 225 226 227 227 230 230 233 234 233 234 235 236 233 231 234 234
207 202 208 201 206 206 208 213 213 228 231 230 229 233 227 227 232 233 233 228 228 226 224 223 226 227 228 229 229 230 231 234 240 237 238 235 235 235 236 235 235 237 238
221 215 208 207 203 207 209 213 216 218 226 232 230 227 227 226 232 229 226 225 226 226 227 227 232 231 231 232 232 233 236 236 239 241 242 239 238 237 238 238 238 237 237
218 221 213 211 203 205 207 209 213 216 220 224 220 229 229 227 228 228 226 230 238 237 237 233 234 235 238 237 237 237 237 239 240 242 245 243 242 241 242 241 242 240 237
222 216 217 208 203 202 202 204 206 209 211 213 220 227 231 226 225 228 231 231 236 232 233 237 237 239 239 240 241 241 241 243 243 245 245 245 248 244 246 246 245 244 244
236 219 209 203 206 205 206 205 207 208 210 212 211 214 224 230 230 231 233 236 238 238 233 234 237 245 243 244 243 244 245 247 248 250 248 251 251 249 250 248 247 246 244
288 212 208 196 202 206 208 208 208 209 213 216 219 223 233 227 224 230 237 239 243 243 243 240 240 242 247 247 247 248 250 250 251 248 247 249 249 250 248 246 248 247 245
262 284 195 192 205 208 212 214 215 216 209 214 218 218 230 233 229 220 226 233 237 240 243 243 243 243 244 245 246 248 248 254 252 246 247 247 246 247 246 246 245 244 242
256 261 231 213 219 231 228 222 223 219 215 217 220 218 228 243 232 235 234 237 239 241 244 246 249 249 248 247 248 249 250 252 246 245 247 245 245 247 244 244 242 239 240
258 255 256 248 243 247 241 230 230 234 234 241 242 235 238 242 239 245 243 238 242 245 247 246 250 252 255 254 251 247 245 250 249 243 240 243 243 240 240 240 238 240 240
254 257 257 258 259 259 256 244 245 244 243 244 245 241 239 243 245 246 244 246 254 259 259 253 248 250 252 254 256 252 244 246 252 258 257 249 243 241 237 238 238 234 231
Height
1530 1532 1535 1538 1541 1542 1546 1548 1551 1554 1558 1560 1562 1564 1565 1566 1568 1569 1570 1571 1573 1573 1573 1573 1574 1577 1580 1582 1582 1583 1585 1586 1587 1590 1591 1593 1595 1597 1596 1596 1595 1597 1594
1526 1527 1530 1534 1537 1539 1541 1544 1547 1551 1554 1557 1559 1562 1563 1564 1565 1566 1569 1569 1570 1570 1571 1571 1573 1575 1577 1578 1581 1581 1583 1584 1586 1588 1592 1592 1595 1596 1595 1595 1598 1599 1598
1522 1523 1526 1528 1532 1536 1537 1540 1543 1548 1551 1555 1557 1559 1562 1563 1564 1566 1567 1568 1568 1569 1570 1571 1572 1574 1575 1577 1578 1579 1581 1583 1584 1587 1589 1592 1594 1595 1595 1596 1597 1598 1598
1518 1521 1523 1525 1529 1532 1534 1536 1540 1543 1547 1551 1555 1557 1559 1561 1563 1564 1565 1566 1566 1567 1568 1570 1571 1573 1573 1575 1577 1578 1581 1583 1584 1587 1588 1590 1592 1592 1594 1595 1596 1597 1598
1513 1518 1520 1523 1526 1529 1531 1533 1537 1539 1544 1548 1551 1554 1557 1559 1561 1562 1564 1564 1565 1566 1567 1568 1569 1571 1573 1574 1578 1579 1580 1583 1585 1587 1587 1589 1590 1589 1591 1593 1594 1595 1593
1509 1514 1517 1520 1523 1526 1528 1531 1534 1537 1540 1544 1548 1550 1554 1557 1559 1560 1561 1562 1563 1565 1566 1566 1568 1570 1571 1573 1574 1577 1579 1582 1584 1586 1586 1588 1588 1588 1589 1590 1592 1594 1595
1505 1510 1514 1517 1520 1523 1526 1529 1532 1536 1539 1542 1545 1548 1552 1554 1556 1558 1559 1560 1562 1563 1564 1566 1568 1569 1570 1571 1573 1576 1578 1580 1581 1582 1583 1584 1584 1585 1587 1587 1589 1591 1592
1501 1506 1510 1513 1517 1521 1524 1527 1530 1534 1537 1541 1544 1547 1549 1552 1554 1556 1558 1559 1560 1561 1563 1565 1567 1567 1569 1570 1572 1574 1576 1578 1579 1581 1580 1580 1581 1581 1583 1585 1586 1587 1588
1498 1502 1506 1510 1515 1519 1522 1526 1530 1534 1536 1540 1543 1546 1549 1550 1551 1554 1556 1557 1558 1559 1561 1563 1565 1566 1568 1570 1571 1572 1573 1575 1577 1577 1577 1578 1579 1580 1581 1583 1585 1586 1587
1494 1499 1504 1508 1511 1516 1521 1524 1529 1532 1534 1538 1541 1544 1547 1547 1550 1552 1554 1557 1557 1558 1560 1562 1563 1564 1566 1568 1569 1570 1571 1573 1574 1575 1576 1577 1578 1578 1579 1580 1583 1585 1585
1491 1497 1501 1506 1510 1514 1518 1522 1526 1528 1532 1536 1539 1542 1544 1545 1548 1549 1551 1553 1555 1557 1560 1561 1562 1563 1564 1565 1567 1569 1570 1570 1571 1572 1573 1575 1576 1577 1577 1577 1578 1580 1582
1489 1495 1499 1503 1508 1511 1515 1519 1524 1526 1529 1532 1536 1539 1541 1543 1544 1546 1548 1550 1553 1556 1559 1561 1562 1561 1563 1563 1565 1566 1567 1569 1571 1571 1571 1573 1574 1576 1576 1575 1574 1575 1577
1486 1491 1496 1500 1504 1508 1512 1516 1520 1522 1525 1528 1531 1534 1536 1537 1540 1542 1544 1546 1550 1553 1557 1559 1558 1559 1560 1560 1561 1563 1564 1565 1568 1569 1568 1569 1570 1572 1573 1572 1571 1571 1571
1481 1486 1491 1495 1499 1504 1508 1511 1516 1517 1520 1523 1525 1529 1532 1533 1534 1535 1538 1541 1545 1548 1550 1552 1553 1554 1556 1557 1557 1557 1559 1561 1563 1564 1565 1566 1567 1567 1566 1568 1568 1568 1568
1475 1481 1485 1489 1493 1497 1502 1505 1508 1511 1513 1517 1521 1524 1526 1528 1529 1530 1532 1534 1537 1541 1544 1548 1547 1548 1549 1551 1552 1553 1553 1554 1556 1557 1560 1561 1562 1562 1561 1562 1562 1564 1564
1470 1476 1480 1483 1486 1490 1494 1499 1501 1504 1507 1511 1514 1518 1522 1525 1525 1526 1529 1531 1534 1536 1538 1540 1543 1544 1544 1546 1546 1547 1548 1548 1549 1551 1551 1552 1554 1555 1555 1555 1556 1555 1555
1468 1471 1476 1477 1481 1484 1488 1491 1494 1496 1500 1504 1507 1510 1514 1517 1519 1522 1524 1527 1530 1532 1531 1533 1536 1537 1538 1538 1540 1540 1541 1541 1542 1542 1542 1543 1544 1545 1547 1547 1547 1546 1547
1469 1469 1471 1470 1475 1478 1481 1485 1489 1492 1492 1495 1499 1502 1506 1509 1513 1516 1518 1520 1521 1522 1525 1527 1528 1530 1530 1531 1532 1533 1534 1535 1534 1534 1534 1535 1536 1537 1536 1535 1537 1539 1539
1459 1465 1466 1467 1469 1471 1475 1478 1482 1485 1487 1489 1492 1493 1497 1501 1505 1508 1510 1511 1512 1513 1514 1517 1519 1522 1523 1524 1524 1524 1525 1527 1528 1529 1528 1527 1526 1526 1525 1527 1529 1530 1531
1452 1456 1459 1461 1461 1464 1466 1469 1472 1476 1478 1481 1485 1487 1487 1491 1494 1496 1498 1499 1501 1504 1507 1507 1509 1512 1512 1514 1514 1514 1514 1515 1516 1517 1517 1517 1516 1516 1517 1520 1522 1523 1523
1449 1446 1448 1452 1455 1456 1460 1462 1466 1468 1471 1474 1475 1478 1479 1482 1485 1487 1489 1489 1490 1492 1495 1497 1499 1498 1499 1501 1502 1505 1506 1506 1505 1504 1504 1506 1508 1509 1510 1511 1512 1512 1512
1422 1439 1437 1440 1446 1449 1452 1455 1457 1459 1462 1466 1469 1472 1470 1471 1475 1479 1480 1480 1481 1482 1484 1485 1487 1488 1488 1489 1489 1490 1491 1492 1493 1493 1494 1495 1496 1498 1498 1499 1500 1500 1501
1433 1407 1418 1433 1440 1444 1446 1450 1451 1453 1453 1458 1462 1465 1462 1463 1465 1467 1471 1474 1475 1476 1477 1475 1475 1476 1477 1478 1478 1478 1477 1476 1478 1482 1482 1483 1484 1486 1487 1487 1487 1488 1490
1442 1435 1430 1434 1437 1442 1442 1445 1447 1448 1451 1452 1454 1456 1457 1457 1459 1461 1461 1463 1464 1466 1467 1467 1466 1464 1464 1464 1466 1466 1467 1468 1470 1472 1473 1473 1473 1475 1476 1477 1477 1479 1480
1432 1432 1434 1434 1434 1437 1437 1437 1439 1441 1442 1445 1447 1449 1450 1452 1454 1454 1454 1454 1454 1455 1456 1457 1456 1456 1453 1453 1453 1455 1458 1459 1460 1460 1462 1463 1463 1463 1466 1466 1466 1466 1469
1428 1429 1429 1429 1428 1428 1429 1431 1432 1431 1431 1433 1437 1438 1440 1443 1445 1446 1448 1447 1447 1447 1446 1446 1445 1445 1446 1446 1444 1443 1446 1446 1446 1448 1450 1450 1452 1454 1455 1456 1456 1457 1459